www.pogodaiklimat.ru

Погода и климат >> Архив погоды >> Китай >> Чжэцзян >> Лишуй


ПОГОДА в Лишуе

  • Прогноз погоды в Лишуе
  • Монитор погоды в Лишуе

АРХИВ ПОГОДЫ в Лишуе

Время (UTC), дата Ветер
(напр.,м/с)
 
Видим.   Явления Облачность Т
(С)
Тd
(С)
f
(%)
Тe
(С)
Тes
(С)
Комфортность P
(гПа)
Po
(гПа)
Тmin
(С)
Tmax
(С)
R
(мм)
R24
(мм)
S
(см)
06 15.08 В 2 15 км в посл. час дождь {морось} 5/5 600 м
[]
+30.3 +23.2 66 +41 +49 опасность
перегрева
998.3 991.6 +25.8
09 15.08 В 1 18 км {дождь} 5/5 1000 м
[]
+31.7 +23.5 62 +43 +44 опасность
перегрева
997.0 990.3
12 15.08 Ю 1 12 км {дождь} 5/5 1000 м
[]
+29.1 +25.3 80 +42 +42 опасность
перегрева
999.1 992.3
15 15.08 ЮЗ 1 4600 м слаб. дождь н/о +26.8 +24.8 89 +38 +38 очень
душно
1000.6 993.8
18 15.08 В 1 3800 м дымка ?/? +26.5 +24.9 91 +38 +38 очень
душно
1000.1 993.3 +35.5 0.1
21 15.08 ЮЗ 1 3300 м дымка н/о +25.8 +24.0 90 +36 +36 очень
душно
1000.8 994.0
00 16.08 СЗ 1 3200 м слаб. дождь 9/9 1000 м
[]
+26.8 +24.3 86 +37 +38 очень
душно
1002.0 995.2 0.5
03 16.08 штиль 0 8000 м 9/9 1000 м
[]
+31.8 +24.1 64 +44 +46 опасность
перегрева
1001.8 995.1
06 16.08 ЮВ 2 14 км 9/9 1000 м
[]
+34.8 +22.8 50 +45 +46 опасность
перегрева
999.5 992.7 +25.8
09 16.08 В 1 13 км {дождь} 9/9 1000 м
[]
+34.3 +23.7 54 +45 +46 опасность
перегрева
999.4 992.8
12 16.08 В 1 13 км {дождь} 9/9 1000 м
[]
+30.3 +22.7 64 +40 +40 очень
душно
1001.9 995.0 0.0
15 16.08 штиль 0 9000 м дымка н/о +27.7 +22.9 75 +37 +37 очень
душно
1003.9 997.1
18 16.08 В 1 12 км ?/? +26.0 +22.9 83 +35 +35 очень
душно
1003.5 996.6 +35.5
21 16.08 штиль 0 11 км н/о +24.9 +22.8 88 +33 +33 очень
душно
1003.6 996.7
00 17.08 штиль 0 8000 м 1/1 1000 м
[]
+28.0 +23.6 77 +38 +46 очень
душно
1004.8 998.0
03 17.08 В 1 15 км ясно +33.5 +24.4 59 +46 +69 опасность
перегрева
1004.6 997.9
06 17.08 В 2 20 км 9/9 1000 м
[]
+35.9 +22.1 45 +44 +46 опасность
перегрева
1001.8 995.2 +24.7
09 17.08 СВ 2 18 км 8/8 1500 м
[]
+36.7 +17.3 32 +40 +40 очень
душно
1001.6 995.0
12 17.08 В 1 7000 м 8/8 1500 м
[]
+30.5 +22.1 61 +39 +39 очень
душно
1003.9 997.1
15 17.08 В 1 10 км н/о +28.5 +23.0 72 +38 +38 очень
душно
1005.5 998.7
18 17.08 В 1 10 км ?/? +26.5 +23.4 83 +36 +36 очень
душно
1004.8 997.9 +36.9
21 17.08 штиль 0 6000 м дымка н/о +25.2 +23.1 88 +34 +34 очень
душно
1005.6 998.7
00 18.08 штиль 0 7000 м ясно +28.1 +23.5 76 +38 +47 очень
душно
1007.0 1000.2
03 18.08 З 1 11 км ясно +33.1 +22.2 53 +42 +65 опасность
перегрева
1005.9 999.2
06 18.08 В 1 18 км 9/9 1000 м
[]
+36.7 +22.1 43 +45 +47 опасность
перегрева
1003.5 996.9 +24.8
09 18.08 В 2 15 км 9/9 1000 м
[]
+35.9 +21.0 42 +43 +43 опасность
перегрева
1002.5 995.9
12 18.08 В 2 10 км {дождь, морось} ясно +31.3 +22.9 61 +41 +41 опасность
перегрева
1005.3 998.6 0.0
15 18.08 В 3 14 км н/о +29.4 +20.6 59 +36 +36 очень
душно
1007.7 1000.9
18 18.08 В 1 19 км ?/? +26.4 +20.9 72 +33 +33 очень
душно
1005.5 998.6 +38.1
21 18.08 В 1 16 км н/о +25.9 +20.7 73 +32 +32 очень
душно
1007.0 1000.1
00 19.08 штиль 0 14 км ясно +27.9 +21.4 68 +36 +44 очень
душно
1008.0 1001.2
03 19.08 СЗ 2 15 км 3/3 600 м
[]
+32.7 +21.9 53 +41 +55 опасность
перегрева
1007.1 1000.4
06 19.08 З 1 16 км 8/8 600 м
[]
+35.4 +22.0 46 +44 +48 опасность
перегрева
1005.1 998.4 +25.5
09 19.08 В 2 15 км 6/6 600 м
[]
+33.6 +21.7 50 +42 +43 опасность
перегрева
1004.7 998.0
12 19.08 В 1 16 км 5/5 600 м
[]
+30.0 +21.4 60 +38 +38 очень
душно
1007.0 1000.2
15 19.08 штиль 0 17 км н/о +29.0 +21.5 64 +37 +37 очень
душно
1008.2 1001.4
18 19.08 В 1 16 км ?/? +27.0 +21.7 73 +35 +35 очень
душно
1007.9 1001.0 +35.8
21 19.08 СВ 1 11 км н/о +24.9 +21.8 83 +32 +32 очень
душно
1008.0 1001.1
00 20.08 ЮЗ 1 11 км ясно +27.6 +22.1 72 +36 +43 очень
душно
1008.3 1001.4
03 20.08 В 1 18 км ясно +32.7 +22.2 54 +42 +64 опасность
перегрева
1007.6 1000.9
06 20.08 В 2 20 км 8/8 1000 м
[]
+36.2 +21.6 43 +44 +47 опасность
перегрева
1004.7 998.1 +24.6
09 20.08 В 1 16 км 9/9 1000 м
[]
+35.4 +20.9 43 +42 +43 опасность
перегрева
1003.6 997.0
12 20.08 В 2 13 км ясно +30.4 +22.6 63 +40 +40 очень
душно
1005.7 998.9
15 20.08 СВ 1 18 км н/о +28.4 +22.4 70 +37 +37 очень
душно
1006.5 999.7
18 20.08 В 1 15 км ?/? +26.5 +22.1 77 +34 +34 очень
душно
1005.7 998.8 +36.2
21 20.08 В 1 11 км н/о +24.8 +21.9 84 +32 +32 очень
душно
1006.2 999.3
00 21.08 штиль 0 11 км ясно +28.2 +22.7 72 +37 +46 очень
душно
1007.4 1000.6
03 21.08 В 1 15 км ясно +33.1 +22.8 55 +43 +65 опасность
перегрева
1006.3 999.6
06 21.08 В 1 20 км ясно +37.2 +17.2 31 +40 +59 опасность
солнечного
удара
1004.1 997.5 +24.5
09 21.08 В 1 18 км 5/5 1500 м
[]
+36.7 +20.5 39 +43 +44 опасность
перегрева
1003.4 996.8
12 21.08 В 1 11 км 6/6 1500 м
[]
+31.8 +22.5 58 +41 +41 опасность
перегрева
1005.6 998.9
15 21.08 В 2 14 км н/о +29.7 +23.4 69 +40 +40 очень
душно
1007.8 1001.0
18 21.08 В 2 14 км ?/? +28.0 +22.7 73 +37 +37 очень
душно
1007.3 1000.5 +38.1
21 21.08 В 1 13 км н/о +26.3 +22.2 78 +34 +34 очень
душно
1007.7 1000.8
00 22.08 В 1 13 км ясно +29.3 +23.3 70 +40 +47 очень
душно
1008.9 1002.1
03 22.08 З 1 20 км 3/3 1000 м
[]
+33.8 +23.2 54 +44 +60 опасность
перегрева
1007.6 1000.9

 

Местоположение метеостанции Лишуй (Чжэцзян, Китай): широта 28.45 долгота 119.91 высота над уровнем моря 60 м.

В архиве по умолчанию представлена погода в Лишуе за последнюю неделю. Архивные данные за месяц целиком и за предыдущие месяцы, начиная с января 2011 года, Вы можете получить, выбрав интересующий диапазон дат из раскрывающегося списка и нажав кнопку "Ввод!".


*Определитесь, кто Вы:
робот инопланетянин человек

Внимание! Время в таблицах - всемирное. Для получения местного времени необходимо прибавить поправку, которая равна 8 ч.

Смотрите также архив погоды в соседних городах и на ближайших метеорологических станциях:

Погода в Руиане (Чжэцзян, Китай) (104 км)
Погода в Цюйчжоу (Чжэцзян, Китай) (118 км)
Погода в Фудине (Фуцзянь, Китай) (128 км)
Погода в Пученге (Фуцзянь, Китай) (148 км)
Погода в Шэнсяне (Чжэцзян, Китай) (155 км)
Погода в Цяньдаоху (Чжэцзян, Китай) (156 км)
Погода на Дачен Дао (Чжэцзян, Китай) (193 км)
Погода в Уишане (Фуцзянь, Китай) (199 км)
Погода в Ханчжоу (Чжэцзян, Китай) (199 км)
Погода в Шипу (Хубэй, Китай) (216 км)

Пояснения к столбцам:

Ветер - указаны скорость ветра в м/с - средняя за 10 мин, порывы в срок и между сроками (в фигурных скобках) и направление, откуда дует ветер: С - северный, СВ - северо-восточный, В - восточный, ЮВ - юго-восточный, Ю - южный, ЮЗ - юго-западный, З - западный, СЗ - северо-западный.
Видимость - горизонтальная дальность видимости в метрах или километрах. При видимости от 1 до 10 км при отсутствии осадков обычно наблюдается дымка, при ухудшении видимости до 1 км и менее - туман. В сухую погоду видимость может ухудшаться дымом, пылью или мглою.
Явления - указаны атмосферные явления, наблюдавшиеся в срок или в последний час перед сроком; фигурными скобками обозначены явления, наблюдавшиеся между сроками (за 1-3 часа до срока); квадратными скобками обозначены град или гололедные отложения с указанием их диаметра в мм.
Облачность - указаны через наклонную черту общая и нижняя облачность в баллах и высота нижней границы облаков в метрах; квадратными скобками обозначены формы облаков: Ci - перистые, Cs - перисто-слоистые, Cc - перисто-кучевые, Ac - высококучевые, As - высокослоистые, Sc - слоисто-кучевые, Ns - слоисто-дождевые, Cu - кучевые, Cb - кучево-дождевые. Подробнее классификацию облаков см. в Атласе облаков (PDF).
T - Температура воздуха - температура, измеренная на высоте 2 м над землей.
Td - Температура точки росы - температура, при понижении до которой содержащийся в воздухе водяной пар достигнет насыщения.
f - Относительная влажность воздуха - влажноcть воздуха, измеренная на высоте 2 м над землей.
Te - Эффективная температура - температура, которую ощущает одетый по сезону человек в тени. Характеристика душности погоды. При расчете учитывается влияние влажности воздуха и скорости ветра на теплоощущения человека.
Tes - Эффективная температура на солнце - температура, которую ощущает человек, с поправкой на солнечный нагрев. Характеристика знойности погоды. Зависит от высоты солнца над горизонтом, облачности и скорости ветра. Ночью, в пасмурную погоду, а также при ветре 12 м/с и более поправка равна нулю.
P - Атмосферное давление - приведенное к уровню моря атмосферное давление.
Po - Атмосферное давление - измеренное на уровне метеостанции атмосферное давление.
Tmin - Минимальная температура - минимум температуры воздуха на высоте 2 м над землей.
Tmax - Максимальная температура - максимум температуры воздуха на высоте 2 м над землей.
R - Количество осадков - Количество выпавших осадков за период времени, мм. При наведении курсора мыши на число - период времени, за который выпало указанное количество осадков.
R24 - Количество осадков - Количество выпавших осадков за 24 часа, мм.
S - Снежный покров - Высота снежного покрова, см. При наведении курсора мыши на число - состояние снежного покрова и степень покрытия местности в баллах.